{"data":{"norad_id":66883,"epoch":"2026-05-24T22:44:59.368704Z","epoch_age_seconds":75515,"freshness":"FRESH","line1":"1 66883U 25283F   26144.94790936  .00021660  00000+0  65040-3 0  9997","line2":"2 66883  53.1614  29.6748 0000537  21.7215 338.3811 15.34396318 27540","mean_motion":15.34396318,"eccentricity":5.37e-5,"inclination_deg":53.1614,"raan_deg":29.6748,"arg_perigee_deg":21.7215,"mean_anomaly_deg":338.3811,"bstar":0.0006504,"rev_number":2754,"period_min":93.847983282244,"perigee_km":462.34683020036,"apogee_km":463.08153761751,"semimajor_km":6840.8511839089,"source":"CELESTRAK","updated_at":"2026-05-25T13:38:21.378875Z"}}